TGM annuale;;;;;;;;;;;;;;;TGM annuale;;;;;;;;;;;;;;;TGM annuale;;;;;;;;;;;;;
Tratta nr.46 SR429, Km 5.000, San Gimignano(SI) (flussi ascendente/discendente);;;;;;;;;;;;;;;Tratta nr.46 SR429, Km 5.000, San Gimignano(SI) (flusso ascendente);;;;;;;;;;;;;;;Tratta nr.46 SR429, Km 5.000, San Gimignano(SI) (flusso discendente);;;;;;;;;;;;;
Anno;01 Motocicli;02 Auto e monovolume;03 Auto e monovolume con rimorchio;04 Furgoncini e camioncini;05 Camion;06 Autotreni;07 Autoarticolati;08 Autobus;09 Veicoli non classificati;Totale;Feriali;Festivi;Prefestivi;;Anno;01 Motocicli;02 Auto e monovolume;03 Auto e monovolume con rimorchio;04 Furgoncini e camioncini;05 Camion;06 Autotreni;07 Autoarticolati;08 Autobus;09 Veicoli non classificati;Totale;Feriali;Festivi;Prefestivi;;Anno;01 Motocicli;02 Auto e monovolume;03 Auto e monovolume con rimorchio;04 Furgoncini e camioncini;05 Camion;06 Autotreni;07 Autoarticolati;08 Autobus;09 Veicoli non classificati;Totale;Feriali;Festivi;Prefestivi
2018;122;10266;16;913;419;131;243;29;0;12139;13012;9751;10953;;2018;67;5220;8;452;211;65;129;15;0;6167;6589;5082;5509;;2018;56;5046;8;461;208;65;114;14;0;5972;6423;4670;5444
;;;;;;;;;;;;;;;;;;;;;;;;;;;;;;;;;;;;;;;;;;;
Tabella flussi 2018;;;;;;;;;;;;;;;Tabella flussi 2018;;;;;;;;;;;;;;;Tabella flussi 2018;;;;;;;;;;;;;
Tratta nr.46 SR429, Km 5.000, San Gimignano(SI) (flussi ascendente/discendente);;;;;;;;;;;;;;;Tratta nr.46 SR429, Km 5.000, San Gimignano(SI) (flusso ascendente);;;;;;;;;;;;;;;Tratta nr.46 SR429, Km 5.000, San Gimignano(SI) (flusso discendente);;;;;;;;;;;;;
;Traffico Totale;;;;;;;;;;Traffico Med.Orario 06:00 - 20:00;Traffico Ora di punta;;;;Traffico Totale;;;;;;;;;;Traffico Med.Orario 06:00 - 20:00;Traffico Ora di punta;;;;Traffico Totale;;;;;;;;;;Traffico Med.Orario 06:00 - 20:00;Traffico Ora di punta;
Giorno;01 Motocicli;02 Auto e monovolume;03 Auto e monovolume con rimorchio;04 Furgoncini e camioncini;05 Camion;06 Autotreni;07 Autoarticolati;08 Autobus;09 Veicoli non classificati;Totale;Totale;Ora di punta;Flusso totale ora di punta;;Giorno;01 Motocicli;02 Auto e monovolume;03 Auto e monovolume con rimorchio;04 Furgoncini e camioncini;05 Camion;06 Autotreni;07 Autoarticolati;08 Autobus;09 Veicoli non classificati;Totale;Totale;Ora di punta;Flusso totale ora di punta;;Giorno;01 Motocicli;02 Auto e monovolume;03 Auto e monovolume con rimorchio;04 Furgoncini e camioncini;05 Camion;06 Autotreni;07 Autoarticolati;08 Autobus;09 Veicoli non classificati;Totale;Totale;Ora di punta;Flusso totale ora di punta
01/01/2018;;;;;;;;;;;;;;;01/01/2018;;;;;;;;;;;;;;;01/01/2018;;;;;;;;;;;;;
02/01/2018;;;;;;;;;;;;;;;02/01/2018;;;;;;;;;;;;;;;02/01/2018;;;;;;;;;;;;;
03/01/2018;;;;;;;;;;;;;;;03/01/2018;;;;;;;;;;;;;;;03/01/2018;;;;;;;;;;;;;
04/01/2018;;;;;;;;;;;;;;;04/01/2018;;;;;;;;;;;;;;;04/01/2018;;;;;;;;;;;;;
05/01/2018;;;;;;;;;;;;;;;05/01/2018;;;;;;;;;;;;;;;05/01/2018;;;;;;;;;;;;;
06/01/2018;;;;;;;;;;;;;;;06/01/2018;;;;;;;;;;;;;;;06/01/2018;;;;;;;;;;;;;
07/01/2018;;;;;;;;;;;;;;;07/01/2018;;;;;;;;;;;;;;;07/01/2018;;;;;;;;;;;;;
08/01/2018;;;;;;;;;;;;;;;08/01/2018;;;;;;;;;;;;;;;08/01/2018;;;;;;;;;;;;;
09/01/2018;;;;;;;;;;;;;;;09/01/2018;;;;;;;;;;;;;;;09/01/2018;;;;;;;;;;;;;
10/01/2018;;;;;;;;;;;;;;;10/01/2018;;;;;;;;;;;;;;;10/01/2018;;;;;;;;;;;;;
11/01/2018;;;;;;;;;;;;;;;11/01/2018;;;;;;;;;;;;;;;11/01/2018;;;;;;;;;;;;;
12/01/2018;;;;;;;;;;;;;;;12/01/2018;;;;;;;;;;;;;;;12/01/2018;;;;;;;;;;;;;
13/01/2018;;;;;;;;;;;;;;;13/01/2018;;;;;;;;;;;;;;;13/01/2018;;;;;;;;;;;;;
14/01/2018;;;;;;;;;;;;;;;14/01/2018;;;;;;;;;;;;;;;14/01/2018;;;;;;;;;;;;;
15/01/2018;;;;;;;;;;;;;;;15/01/2018;;;;;;;;;;;;;;;15/01/2018;;;;;;;;;;;;;
16/01/2018;;;;;;;;;;;;;;;16/01/2018;;;;;;;;;;;;;;;16/01/2018;;;;;;;;;;;;;
17/01/2018;;;;;;;;;;;;;;;17/01/2018;;;;;;;;;;;;;;;17/01/2018;;;;;;;;;;;;;
18/01/2018;;;;;;;;;;;;;;;18/01/2018;;;;;;;;;;;;;;;18/01/2018;;;;;;;;;;;;;
19/01/2018;;;;;;;;;;;;;;;19/01/2018;;;;;;;;;;;;;;;19/01/2018;;;;;;;;;;;;;
20/01/2018;;;;;;;;;;;;;;;20/01/2018;;;;;;;;;;;;;;;20/01/2018;;;;;;;;;;;;;
21/01/2018;;;;;;;;;;;;;;;21/01/2018;;;;;;;;;;;;;;;21/01/2018;;;;;;;;;;;;;
22/01/2018;;;;;;;;;;;;;;;22/01/2018;;;;;;;;;;;;;;;22/01/2018;;;;;;;;;;;;;
23/01/2018;;;;;;;;;;;;;;;23/01/2018;;;;;;;;;;;;;;;23/01/2018;;;;;;;;;;;;;
24/01/2018;;;;;;;;;;;;;;;24/01/2018;;;;;;;;;;;;;;;24/01/2018;;;;;;;;;;;;;
25/01/2018;;;;;;;;;;;;;;;25/01/2018;;;;;;;;;;;;;;;25/01/2018;;;;;;;;;;;;;
26/01/2018;61;10359;11;1146;582;160;329;23;0;12671;779;17;1125;;26/01/2018;33;5251;5;571;304;91;168;16;0;6439;386;17;663;;26/01/2018;28;5108;6;575;278;69;161;7;0;6232;393;7;743
27/01/2018;90;10154;16;522;95;42;43;19;0;10981;623;18;898;;27/01/2018;60;5082;10;258;46;18;19;12;0;5505;303;18;497;;27/01/2018;30;5072;6;264;49;24;24;7;0;5476;321;17;476
28/01/2018;109;8419;22;317;33;28;7;10;0;8945;505;17;973;;28/01/2018;59;4393;11;175;18;9;4;6;0;4675;252;18;537;;28/01/2018;50;4026;11;142;15;19;3;4;0;4270;253;17;441
29/01/2018;61;9617;11;951;537;167;308;20;0;11672;739;17;1024;;29/01/2018;37;4891;6;492;266;79;164;10;0;5945;371;17;670;;29/01/2018;24;4726;5;459;271;88;144;10;0;5727;367;7;752
30/01/2018;47;10043;11;1062;562;202;319;18;0;12264;776;17;1062;;30/01/2018;34;5102;6;524;286;120;169;9;0;6250;391;17;679;;30/01/2018;13;4941;5;538;276;82;150;9;0;6014;385;7;795
31/01/2018;54;9889;16;1092;542;167;350;33;0;12143;764;7;1041;;31/01/2018;34;5015;10;538;262;94;192;16;0;6161;380;17;670;;31/01/2018;20;4874;6;554;280;73;158;17;0;5982;384;7;761
01/02/2018;46;10072;11;977;514;172;321;20;0;12133;760;17;1058;;01/02/2018;24;5111;4;492;273;86;169;10;0;6169;378;18;670;;01/02/2018;22;4961;7;485;241;86;152;10;0;5964;382;7;723
02/02/2018;54;10116;17;1003;544;187;268;16;0;12205;748;17;994;;02/02/2018;35;5142;7;507;288;97;134;9;0;6219;374;18;608;;02/02/2018;19;4974;10;496;256;90;134;7;0;5986;375;7;671
03/02/2018;43;8873;7;418;81;41;32;11;0;9506;547;17;749;;03/02/2018;26;4374;3;209;39;19;13;3;0;4686;265;19;462;;03/02/2018;17;4499;4;209;42;22;19;8;0;4820;282;17;402
04/02/2018;40;8483;7;246;25;25;3;23;0;8852;499;17;934;;04/02/2018;22;4443;4;135;12;17;0;13;0;4646;248;19;501;;04/02/2018;18;4040;3;111;13;8;3;10;0;4206;250;17;508
05/02/2018;48;9581;11;909;521;181;329;22;0;11602;733;17;1059;;05/02/2018;28;4813;5;449;270;97;178;10;0;5850;363;17;663;;05/02/2018;20;4768;6;460;251;84;151;12;0;5752;370;7;734
06/02/2018;46;9835;18;1078;537;174;300;15;0;12003;761;8;1057;;06/02/2018;38;4968;9;534;272;100;161;9;0;6091;380;18;672;;06/02/2018;8;4867;9;544;265;74;139;6;0;5912;381;7;764
07/02/2018;47;9689;3;981;519;179;331;23;0;11772;739;17;1075;;07/02/2018;25;4882;1;494;253;106;194;11;0;5966;366;17;663;;07/02/2018;22;4807;2;487;266;73;137;12;0;5806;372;7;710
08/02/2018;53;9966;15;960;526;184;348;21;0;12073;752;17;1123;;08/02/2018;25;5032;4;490;274;104;195;6;0;6130;375;17;704;;08/02/2018;28;4934;11;470;252;80;153;15;0;5943;378;7;706
09/02/2018;65;10351;12;1085;487;166;271;24;0;12461;771;17;1095;;09/02/2018;41;5245;6;528;241;95;142;18;0;6316;385;18;681;;09/02/2018;24;5106;6;557;246;71;129;6;0;6145;386;7;704
10/02/2018;84;9423;14;516;94;60;44;16;0;10251;597;17;825;;10/02/2018;39;4724;5;250;44;27;21;10;0;5120;289;19;473;;10/02/2018;45;4699;9;266;50;33;23;6;0;5131;308;17;460
11/02/2018;76;8680;23;279;33;32;7;19;0;9149;514;18;903;;11/02/2018;39;4512;9;154;17;15;5;10;0;4761;262;18;558;;11/02/2018;37;4168;14;125;16;17;2;9;0;4388;253;17;417
12/02/2018;63;9906;12;890;584;157;347;33;0;11992;760;8;1021;;12/02/2018;42;5053;4;443;293;86;194;15;0;6130;378;17;656;;12/02/2018;21;4853;8;447;291;71;153;18;0;5862;381;7;750
13/02/2018;59;9974;11;1120;575;196;363;26;0;12324;782;18;1093;;13/02/2018;38;5075;4;557;285;109;196;13;0;6277;391;18;663;;13/02/2018;21;4899;7;563;290;87;167;13;0;6047;391;7;749
14/02/2018;57;10435;11;1085;559;192;328;23;0;12690;785;17;1085;;14/02/2018;35;5289;7;543;283;106;176;13;0;6452;392;17;664;;14/02/2018;22;5146;4;542;276;86;152;10;0;6238;394;7;714
15/02/2018;66;10258;22;1041;495;184;314;14;0;12394;777;17;1111;;15/02/2018;35;5192;12;504;269;102;168;5;0;6287;388;17;694;;15/02/2018;31;5066;10;537;226;82;146;9;0;6107;390;7;751
16/02/2018;71;10629;13;1074;498;193;296;23;0;12797;792;17;1176;;16/02/2018;44;5389;7;538;245;92;169;14;0;6498;398;17;718;;16/02/2018;27;5240;6;536;253;101;127;9;0;6299;394;7;730
17/02/2018;60;9146;19;483;107;43;42;10;0;9910;562;17;742;;17/02/2018;34;4585;8;239;58;25;21;6;0;4976;276;19;423;;17/02/2018;26;4561;11;244;49;18;21;4;0;4934;286;16;388
18/02/2018;29;8260;4;262;21;16;11;13;0;8616;483;17;857;;18/02/2018;22;4344;2;145;10;6;5;6;0;4540;243;19;457;;18/02/2018;7;3916;2;117;11;10;6;7;0;4076;240;17;442
19/02/2018;57;9836;9;910;574;146;395;14;0;11941;758;8;1071;;19/02/2018;43;4972;3;446;280;78;201;6;0;6029;375;17;680;;19/02/2018;14;4864;6;464;294;68;194;8;0;5912;382;7;740
20/02/2018;57;9734;10;1007;608;162;333;36;0;11947;761;17;1042;;20/02/2018;36;4884;3;498;308;91;182;14;0;6016;377;17;629;;20/02/2018;21;4850;7;509;300;71;151;22;0;5931;385;7;771
21/02/2018;59;9876;8;1085;526;179;384;25;0;12142;763;17;1042;;21/02/2018;35;5003;3;538;274;96;203;10;0;6162;380;17;647;;21/02/2018;24;4873;5;547;252;83;181;15;0;5980;383;7;760
22/02/2018;56;10009;9;998;560;206;350;10;0;12198;773;17;1108;;22/02/2018;40;5048;6;506;287;119;188;6;0;6200;384;18;667;;22/02/2018;16;4961;3;492;273;87;162;4;0;5998;389;8;721
23/02/2018;47;10403;13;1132;556;170;305;31;0;12657;780;17;1066;;23/02/2018;31;5267;10;576;286;89;175;16;0;6450;393;17;658;;23/02/2018;16;5136;3;556;270;81;130;15;0;6207;387;7;698
24/02/2018;65;9371;18;466;99;26;49;8;0;10102;578;17;801;;24/02/2018;37;4765;7;226;51;17;21;6;0;5130;283;19;461;;24/02/2018;28;4606;11;240;48;9;28;2;0;4972;295;16;429
25/02/2018;35;6143;12;241;28;13;7;9;0;6488;369;12;555;;25/02/2018;23;3206;7;128;15;6;3;3;0;3391;187;12;296;;25/02/2018;12;2937;5;113;13;7;4;6;0;3097;183;17;283
26/02/2018;56;8858;6;863;410;90;204;21;0;10508;681;8;945;;26/02/2018;38;4508;0;440;206;44;90;9;0;5335;339;18;568;;26/02/2018;18;4350;6;423;204;46;114;12;0;5173;342;7;691
27/02/2018;60;9569;14;1031;541;177;292;17;0;11701;752;17;1030;;27/02/2018;45;4807;7;524;266;90;158;5;0;5902;374;17;646;;27/02/2018;15;4762;7;507;275;87;134;12;0;5799;378;7;723
28/02/2018;44;9773;7;1031;571;195;329;28;0;11978;769;17;1053;;28/02/2018;34;4920;6;512;286;106;193;13;0;6070;383;17;666;;28/02/2018;10;4853;1;519;285;89;136;15;0;5908;386;7;687
01/03/2018;32;4023;2;295;151;62;144;8;0;4717;290;17;461;;01/03/2018;24;2054;1;156;86;40;89;4;0;2454;148;18;276;;01/03/2018;8;1969;1;139;65;22;55;4;0;2263;142;14;208
02/03/2018;43;9878;11;1030;603;220;478;33;0;12296;771;17;1041;;02/03/2018;26;4888;5;531;320;122;263;17;0;6172;378;18;631;;02/03/2018;17;4990;6;499;283;98;215;16;0;6124;392;8;630
03/03/2018;57;8673;4;454;121;50;59;11;0;9429;534;16;726;;03/03/2018;33;4301;0;222;59;19;25;5;0;4664;260;19;428;;03/03/2018;24;4372;4;232;62;31;34;6;0;4765;274;16;395
04/03/2018;47;8763;4;241;27;22;13;17;0;9134;513;18;956;;04/03/2018;30;4629;3;121;13;5;6;11;0;4818;261;18;588;;04/03/2018;17;4134;1;120;14;17;7;6;0;4316;252;17;490
05/03/2018;47;9811;11;950;578;203;337;27;0;11964;754;17;1033;;05/03/2018;27;4964;4;467;305;107;184;15;0;6073;375;17;631;;05/03/2018;20;4847;7;483;273;96;153;12;0;5891;379;7;728
06/03/2018;57;10053;5;1122;617;194;355;22;0;12425;785;17;1095;;06/03/2018;31;5066;4;541;320;94;190;8;0;6254;389;17;673;;06/03/2018;26;4987;1;581;297;100;165;14;0;6171;396;7;773
07/03/2018;61;10155;10;1096;600;181;343;41;0;12487;783;17;1128;;07/03/2018;36;5166;9;544;317;91;201;23;0;6387;392;17;677;;07/03/2018;25;4989;1;552;283;90;142;18;0;6100;391;7;747
08/03/2018;65;10656;16;1092;561;163;338;29;0;12920;805;8;1109;;08/03/2018;34;5374;8;523;293;82;191;15;0;6520;397;18;683;;08/03/2018;31;5282;8;569;268;81;147;14;0;6400;408;7;765
09/03/2018;49;10817;21;1134;639;184;291;33;0;13168;796;17;1122;;09/03/2018;32;5516;14;568;328;94;154;18;0;6724;398;17;690;;09/03/2018;17;5301;7;566;311;90;137;15;0;6444;398;7;713
10/03/2018;70;9847;35;570;109;50;45;15;0;10741;616;18;906;;10/03/2018;40;4972;14;291;55;17;24;10;0;5423;304;19;531;;10/03/2018;30;4875;21;279;54;33;21;5;0;5318;312;17;423
11/03/2018;45;8251;3;264;34;17;11;25;0;8650;487;17;837;;11/03/2018;25;4355;2;138;20;3;6;14;0;4563;245;18;443;;11/03/2018;20;3896;1;126;14;14;5;11;0;4087;242;17;418
12/03/2018;71;10111;10;968;591;207;413;39;0;12410;786;17;1061;;12/03/2018;46;5208;8;492;305;111;250;21;0;6441;400;17;638;;12/03/2018;25;4903;2;476;286;96;163;18;0;5969;385;7;734
13/03/2018;82;10077;12;1099;624;191;331;48;0;12464;790;8;1070;;13/03/2018;54;5152;7;546;323;106;176;24;0;6388;397;17;689;;13/03/2018;28;4925;5;553;301;85;155;24;0;6076;393;7;742
14/03/2018;51;10327;11;1097;562;212;355;42;0;12657;793;17;1070;;14/03/2018;33;5255;4;540;288;109;196;23;0;6448;397;17;670;;14/03/2018;18;5072;7;557;274;103;159;19;0;6209;396;7;747
15/03/2018;60;10229;10;1000;604;203;313;22;0;12441;780;17;1046;;15/03/2018;29;5241;5;493;322;104;172;12;0;6378;391;17;688;;15/03/2018;31;4988;5;507;282;99;141;10;0;6063;389;7;740
16/03/2018;61;10697;13;1099;576;180;351;32;0;13009;800;17;1136;;16/03/2018;35;5425;5;533;292;78;194;17;0;6579;398;17;679;;16/03/2018;26;5272;8;566;284;102;157;15;0;6430;402;7;748
17/03/2018;53;9582;15;486;114;48;45;31;0;10374;589;18;864;;17/03/2018;26;4840;6;228;50;14;21;19;0;5204;281;18;446;;17/03/2018;27;4742;9;258;64;34;24;12;0;5170;307;17;450
18/03/2018;43;8528;13;288;34;19;7;18;0;8950;500;17;848;;18/03/2018;31;4450;8;152;16;11;3;8;0;4679;249;18;444;;18/03/2018;12;4078;5;136;18;8;4;10;0;4271;252;17;422
19/03/2018;58;10152;8;898;502;155;347;33;0;12153;766;8;1033;;19/03/2018;40;5174;4;448;253;82;187;17;0;6205;383;18;641;;19/03/2018;18;4978;4;450;249;73;160;16;0;5948;382;7;743
20/03/2018;53;10060;14;1088;602;207;364;48;0;12436;789;17;1088;;20/03/2018;31;5109;9;544;311;113;195;29;0;6341;395;17;679;;20/03/2018;22;4951;5;544;291;94;169;19;0;6095;394;7;759
21/03/2018;62;9985;15;1096;556;168;356;46;0;12284;771;17;1063;;21/03/2018;46;5037;7;539;286;90;189;22;0;6216;384;18;657;;21/03/2018;16;4948;8;557;270;78;167;24;0;6068;387;7;720
22/03/2018;66;10618;22;1124;494;221;371;31;0;12947;814;17;1121;;22/03/2018;39;5394;10;559;249;113;205;12;0;6581;406;18;703;;22/03/2018;27;5224;12;565;245;108;166;19;0;6366;408;7;742
23/03/2018;73;10973;11;1206;595;176;329;39;0;13402;821;17;1160;;23/03/2018;45;5544;3;598;316;93;171;23;0;6793;411;17;698;;23/03/2018;28;5429;8;608;279;83;158;16;0;6609;410;7;751
24/03/2018;128;10149;17;504;119;51;52;31;0;11051;632;17;861;;24/03/2018;66;5098;9;251;54;19;28;18;0;5543;309;19;510;;24/03/2018;62;5051;8;253;65;32;24;13;0;5508;323;17;444
25/03/2018;114;9719;19;334;37;32;9;19;0;10283;577;18;986;;25/03/2018;78;5123;9;165;18;12;6;10;0;5421;288;19;598;;25/03/2018;36;4596;10;169;19;20;3;9;0;4862;289;16;472
26/03/2018;;;;;;;;;;;;;;;26/03/2018;;;;;;;;;;;;;;;26/03/2018;;;;;;;;;;;;;
27/03/2018;;;;;;;;;;;;;;;27/03/2018;;;;;;;;;;;;;;;27/03/2018;;;;;;;;;;;;;
28/03/2018;;;;;;;;;;;;;;;28/03/2018;;;;;;;;;;;;;;;28/03/2018;;;;;;;;;;;;;
29/03/2018;;;;;;;;;;;;;;;29/03/2018;;;;;;;;;;;;;;;29/03/2018;;;;;;;;;;;;;
30/03/2018;;;;;;;;;;;;;;;30/03/2018;;;;;;;;;;;;;;;30/03/2018;;;;;;;;;;;;;
31/03/2018;59;10256;17;597;88;27;40;16;0;11100;643;16;867;;31/03/2018;32;5363;8;290;36;9;18;6;0;5762;324;19;501;;31/03/2018;27;4893;9;307;52;18;22;10;0;5338;318;16;465
01/04/2018;83;9583;8;352;21;15;4;11;0;10077;573;17;1008;;01/04/2018;49;4891;6;178;6;5;2;8;0;5145;285;17;521;;01/04/2018;34;4692;2;174;15;10;2;3;0;4932;288;12;529
02/04/2018;212;13261;22;573;69;48;19;28;0;14232;845;18;1399;;02/04/2018;113;7145;14;359;47;12;13;16;0;7719;438;18;941;;02/04/2018;99;6116;8;214;22;36;6;12;0;6513;408;10;766
03/04/2018;58;11110;16;1211;395;105;209;28;0;13132;818;17;1170;;03/04/2018;35;5785;7;631;198;44;113;15;0;6828;418;18;738;;03/04/2018;23;5325;9;580;197;61;96;13;0;6304;400;7;702
04/04/2018;46;10544;12;1120;581;199;351;48;0;12901;812;17;1076;;04/04/2018;23;5390;5;559;297;105;187;25;0;6591;408;18;683;;04/04/2018;23;5154;7;561;284;94;164;23;0;6310;404;8;683
05/04/2018;77;10923;14;1156;550;227;363;26;0;13336;836;17;1198;;05/04/2018;41;5563;6;570;279;121;211;10;0;6801;418;17;725;;05/04/2018;36;5360;8;586;271;106;152;16;0;6535;419;7;744
06/04/2018;97;11346;15;1231;650;187;345;31;0;13902;851;17;1176;;06/04/2018;46;5732;6;601;327;94;178;20;0;7004;422;18;711;;06/04/2018;51;5614;9;630;323;93;167;11;0;6898;429;7;726
07/04/2018;209;10192;13;546;143;65;71;26;0;11265;637;19;879;;07/04/2018;110;5094;7;265;74;29;34;14;0;5627;307;19;514;;07/04/2018;99;5098;6;281;69;36;37;12;0;5638;330;17;423
08/04/2018;284;9616;24;349;33;33;11;17;0;10367;585;18;988;;08/04/2018;136;5002;12;182;15;12;6;7;0;5372;290;19;619;;08/04/2018;148;4614;12;167;18;21;5;10;0;4995;295;16;459
09/04/2018;48;10151;15;942;553;170;401;44;0;12324;778;17;1052;;09/04/2018;30;5188;8;481;277;78;217;21;0;6300;390;17;630;;09/04/2018;18;4963;7;461;276;92;184;23;0;6024;388;7;747
10/04/2018;51;10395;17;1139;599;199;326;50;0;12776;811;17;1143;;10/04/2018;28;5263;8;567;311;100;179;26;0;6482;405;17;683;;10/04/2018;23;5132;9;572;288;99;147;24;0;6294;406;7;797
11/04/2018;69;10570;15;1066;562;167;348;35;0;12832;803;17;1106;;11/04/2018;33;5329;10;536;279;88;180;16;0;6471;396;18;699;;11/04/2018;36;5241;5;530;283;79;168;19;0;6361;407;7;754
12/04/2018;57;10802;9;1097;590;195;348;36;0;13134;818;17;1144;;12/04/2018;32;5460;4;543;300;99;185;21;0;6644;404;18;668;;12/04/2018;25;5342;5;554;290;96;163;15;0;6490;414;7;765
13/04/2018;103;11269;22;1151;693;146;313;39;0;13736;841;17;1194;;13/04/2018;58;5671;10;556;350;73;164;24;0;6906;415;17;702;;13/04/2018;45;5598;12;595;343;73;149;15;0;6830;426;7;726
14/04/2018;202;10220;28;571;142;82;53;29;0;11327;645;18;881;;14/04/2018;111;5104;13;273;74;31;26;15;0;5647;309;19;510;;14/04/2018;91;5116;15;298;68;51;27;14;0;5680;336;17;471
15/04/2018;86;9670;24;313;41;16;8;18;0;10176;566;18;959;;15/04/2018;54;5002;14;162;21;5;3;12;0;5273;278;19;648;;15/04/2018;32;4668;10;151;20;11;5;6;0;4903;288;17;459
16/04/2018;110;10413;15;1000;635;136;343;44;0;12696;798;17;1148;;16/04/2018;61;5226;7;480;307;69;177;25;0;6352;390;17;678;;16/04/2018;49;5187;8;520;328;67;166;19;0;6344;408;7;788
17/04/2018;87;10193;21;1165;627;206;316;35;0;12650;793;8;1083;;17/04/2018;51;5193;10;549;314;104;167;24;0;6412;394;18;645;;17/04/2018;36;5000;11;616;313;102;149;11;0;6238;398;7;779
18/04/2018;127;10808;11;1126;604;172;346;47;0;13241;824;17;1147;;18/04/2018;63;5510;5;550;319;88;178;21;0;6734;411;17;716;;18/04/2018;64;5298;6;576;285;84;168;26;0;6507;414;7;748
19/04/2018;144;10899;13;1043;590;198;326;47;0;13260;824;17;1163;;19/04/2018;88;5513;6;517;288;105;174;21;0;6712;406;17;682;;19/04/2018;56;5386;7;526;302;93;152;26;0;6548;418;7;741
20/04/2018;153;11297;16;1215;620;181;370;48;0;13900;848;17;1178;;20/04/2018;79;5689;9;594;309;86;182;27;0;6975;417;17;721;;20/04/2018;74;5608;7;621;311;95;188;21;0;6925;431;7;759
21/04/2018;216;10043;27;633;156;62;57;31;0;11225;633;19;857;;21/04/2018;90;4956;10;292;71;26;28;15;0;5488;302;19;489;;21/04/2018;126;5087;17;341;85;36;29;16;0;5737;331;9;430
22/04/2018;272;9819;21;356;45;37;6;31;0;10587;589;18;999;;22/04/2018;141;5138;12;187;22;11;3;17;0;5531;294;19;602;;22/04/2018;131;4681;9;169;23;26;3;14;0;5056;295;17;503
23/04/2018;147;10422;15;1098;664;180;355;26;0;12907;810;17;1132;;23/04/2018;84;5256;5;535;334;84;186;14;0;6498;399;17;703;;23/04/2018;63;5166;10;563;330;96;169;12;0;6409;410;7;729
24/04/2018;138;11349;27;1277;625;194;335;33;0;13978;860;17;1174;;24/04/2018;80;5753;15;611;323;97;178;19;0;7076;427;18;725;;24/04/2018;58;5596;12;666;302;97;157;14;0;6902;433;7;735
25/04/2018;308;9316;13;494;57;40;19;38;0;10285;591;18;967;;25/04/2018;159;4726;10;241;24;17;10;24;0;5211;288;18;635;;25/04/2018;149;4590;3;253;33;23;9;14;0;5074;303;10;477
26/04/2018;148;10761;20;1171;694;210;353;40;0;13397;832;17;1116;;26/04/2018;76;5431;8;570;348;104;174;19;0;6730;412;17;704;;26/04/2018;72;5330;12;601;346;106;179;21;0;6667;420;7;732
27/04/2018;164;11320;25;1281;661;230;343;41;0;14065;861;17;1252;;27/04/2018;76;5720;15;643;328;112;179;22;0;7095;427;17;710;;27/04/2018;88;5600;10;638;333;118;164;19;0;6970;433;7;700
28/04/2018;283;10716;40;769;164;46;86;28;0;12132;694;17;871;;28/04/2018;142;5315;20;358;76;14;40;18;0;5983;331;12;462;;28/04/2018;141;5401;20;411;88;32;46;10;0;6149;363;10;463
29/04/2018;273;11023;47;533;59;32;18;26;0;12011;689;18;1021;;29/04/2018;162;5602;22;248;29;7;9;15;0;6094;331;19;569;;29/04/2018;111;5421;25;285;30;25;9;11;0;5917;358;16;521
30/04/2018;237;11869;18;1065;405;111;219;50;0;13974;861;17;1224;;30/04/2018;133;5906;7;519;207;53;112;22;0;6959;418;18;700;;30/04/2018;104;5963;11;546;198;58;107;28;0;7015;443;11;577
01/05/2018;132;9360;15;527;60;27;26;32;0;10179;605;17;1027;;01/05/2018;83;5106;10;332;44;9;15;17;0;5616;326;17;612;;01/05/2018;49;4254;5;195;16;18;11;15;0;4563;278;16;450
02/05/2018;66;11428;21;1085;625;145;376;59;0;13805;873;17;1230;;02/05/2018;42;5833;9;531;321;80;191;32;0;7039;436;17;756;;02/05/2018;24;5595;12;554;304;65;185;27;0;6766;438;8;761
03/05/2018;80;11425;15;1217;660;170;323;43;0;13933;886;17;1276;;03/05/2018;44;5762;7;613;327;79;178;29;0;7039;441;17;772;;03/05/2018;36;5663;8;604;333;91;145;14;0;6894;445;7;750
04/05/2018;109;11547;11;1194;615;212;344;55;0;14087;870;17;1234;;04/05/2018;53;5881;8;578;311;101;173;32;0;7137;434;17;708;;04/05/2018;56;5666;3;616;304;111;171;23;0;6950;437;7;730
05/05/2018;97;10130;32;629;128;51;71;27;0;11165;640;17;895;;05/05/2018;59;5171;17;315;67;26;30;12;0;5697;320;19;499;;05/05/2018;38;4959;15;314;61;25;41;15;0;5468;320;17;439
06/05/2018;80;9181;17;392;48;26;9;26;0;9779;547;18;917;;06/05/2018;46;4839;7;201;19;3;3;15;0;5133;276;18;514;;06/05/2018;34;4342;10;191;29;23;6;11;0;4646;271;16;432
07/05/2018;99;10967;17;1110;653;181;362;47;0;13436;844;17;1179;;07/05/2018;55;5691;6;552;344;79;193;25;0;6945;428;17;750;;07/05/2018;44;5276;11;558;309;102;169;22;0;6491;416;7;767
08/05/2018;102;10891;18;1197;681;185;375;48;0;13497;852;17;1142;;08/05/2018;48;5532;9;599;343;89;198;25;0;6843;427;17;733;;08/05/2018;54;5359;9;598;338;96;177;23;0;6654;426;7;795
09/05/2018;83;11080;19;1210;609;195;382;48;0;13626;853;17;1196;;09/05/2018;52;5637;8;596;305;96;205;25;0;6924;426;17;709;;09/05/2018;31;5443;11;614;304;99;177;23;0;6702;427;7;745
10/05/2018;100;11483;20;1146;579;208;361;37;0;13934;865;17;1225;;10/05/2018;54;5913;9;574;303;115;186;20;0;7174;439;18;779;;10/05/2018;46;5570;11;572;276;93;175;17;0;6760;426;8;714
11/05/2018;130;12093;14;1219;630;215;321;48;0;14670;894;17;1278;;11/05/2018;73;6122;6;621;320;100;170;23;0;7435;446;17;735;;11/05/2018;57;5971;8;598;310;115;151;25;0;7235;449;7;763
12/05/2018;209;10958;22;658;139;57;54;31;0;12128;697;19;895;;12/05/2018;120;5576;8;323;68;24;28;17;0;6164;345;19;531;;12/05/2018;89;5382;14;335;71;33;26;14;0;5964;352;17;448
13/05/2018;181;9833;12;432;37;19;7;26;0;10547;588;19;965;;13/05/2018;108;5197;8;217;18;5;3;17;0;5573;301;19;602;;13/05/2018;73;4636;4;215;19;14;4;9;0;4974;286;17;456
14/05/2018;87;11105;15;1061;621;162;373;47;0;13471;852;18;1145;;14/05/2018;48;5649;10;522;308;81;208;23;0;6849;425;18;710;;14/05/2018;39;5456;5;539;313;81;165;24;0;6622;426;7;759
15/05/2018;59;10815;16;1242;586;162;320;45;0;13245;837;17;1149;;15/05/2018;37;5476;8;621;303;96;178;26;0;6745;421;18;712;;15/05/2018;22;5339;8;621;283;66;142;19;0;6500;415;7;764
16/05/2018;77;11196;26;1176;592;153;356;66;0;13642;849;17;1204;;16/05/2018;35;5719;12;579;307;82;183;34;0;6951;427;17;720;;16/05/2018;42;5477;14;597;285;71;173;32;0;6691;422;7;730
17/05/2018;80;11122;19;1120;556;163;385;33;0;13478;839;17;1145;;17/05/2018;47;5586;11;528;278;82;202;22;0;6756;415;18;671;;17/05/2018;33;5536;8;592;278;81;183;11;0;6722;424;7;738
18/05/2018;212;12587;25;1403;615;178;340;54;0;15414;957;15;1285;;18/05/2018;129;6983;15;731;323;97;191;32;0;8501;529;15;861;;18/05/2018;83;5604;10;672;292;81;149;22;0;6913;428;7;746
19/05/2018;254;10431;29;742;136;56;58;26;0;11732;671;18;885;;19/05/2018;139;5264;17;376;67;18;28;14;0;5923;332;19;524;;19/05/2018;115;5167;12;366;69;38;30;12;0;5809;339;17;434